Location: Newark
(40.2401°N, 1.4098°W)
Time: 11:17:03
(UTC+00:00)

Envisat - Visible Passes

Search period start: 23 October 2019 00:00
Search period end: 02 November 2019 00:00
Orbit: 764 x 766 km, 98.1° (Epoch: 23 October)

Date Brightness Start Highest point End Pass type
(mag) Time Alt. Az. Time Alt. Az. Time Alt. Az.
23 Oct 4.9 18:58:43 10° SSW 19:03:12 31° W 19:07:42 10° NNW visible
24 Oct 3.3 18:21:15 10° S 18:26:18 71° WSW 18:31:24 10° NNW visible
25 Oct 3.2 17:44:42 10° SSE 17:49:36 51° ENE 17:54:32 10° N visible
25 Oct 5.7 19:25:32 10° SW 19:28:54 18° W 19:32:19 10° NW visible
26 Oct 6.1 05:55:07 10° NE 05:58:38 19° E 06:02:07 10° SE visible
26 Oct 4.4 18:47:08 10° SSW 18:51:53 40° W 18:56:39 10° NNW visible
27 Oct 3.0 18:09:57 10° SSE 18:15:02 90° SW 18:20:09 10° NNW visible
28 Oct 3.4 17:33:41 10° SE 17:38:24 41° ENE 17:43:08 10° N visible
28 Oct 5.4 19:13:36 10° SW 19:17:33 23° W 19:21:31 10° NW visible
29 Oct 6.2 05:44:30 10° ENE 05:47:15 14° E 05:49:59 10° ESE visible
29 Oct 3.9 18:35:39 10° S 18:40:34 51° W 18:45:31 10° NNW visible
30 Oct 2.9 17:58:45 10° SSE 18:03:47 72° ENE 18:08:52 10° N visible
30 Oct 6.1 19:41:11 10° WSW 19:43:19 12° W 19:45:26 10° WNW visible
31 Oct 5.0 19:01:51 10° SSW 19:06:11 28° W 19:10:34 10° NW visible
01 Nov 6.6 05:34:27 10° ENE 05:35:50 11° E 05:37:14 10° ESE visible
01 Nov 3.4 18:24:15 10° S 18:29:16 65° W 18:34:21 10° NNW visible
